{"data":{"norad_id":59856,"intl_designator":"2024-097X","name":"STARLINK-31691","alt_names":[],"object_type":"PAYLOAD","status":"ACTIVE","operator":null,"country":"US","launch_date":"2024-05-23","launch_site_code":"AFETR","launch_vehicle":null,"mission":null,"orbit_class":"UNKNOWN","rcs_meters":null,"size_class":null,"mass_kg":null,"dimensions":null,"purposes":["comms"],"wikipedia_slug":null,"has_3d_model":false,"image_url":null,"decayed_at":null,"tle_current":{"epoch":"2026-09-21T16:00:02.873952Z","epoch_age_seconds":73701,"freshness":"FRESH","line1":"1 59856U 24097X   26264.66669993 -.00000259  00000+0  11645-6 0  9998","line2":"2 59856  43.0027 247.1717 0000905 270.2173  89.8575 15.27571798131892","mean_motion":15.27571798,"eccentricity":9.05e-5,"inclination_deg":43.0027,"raan_deg":247.1717,"arg_perigee_deg":270.2173,"mean_anomaly_deg":89.8575,"bstar":1.1645e-7,"rev_number":13189,"period_min":94.267254860645,"perigee_km":482.45271632384,"apogee_km":483.69459545256,"semimajor_km":6861.2106558882,"source":"CELESTRAK","updated_at":"2026-09-22T09:00:49.099739Z"}}}